Weather History for Shelbyville, IN

Change the Weather History Date:

Saturday, August 17, 2013

  Actual Average Record
Temperature  
Mean Temperature 70 °F 72 °F  
Max Temperature 83 °F 83 °F 89 °F (1999)
Min Temperature 56 °F 62 °F 52 °F (2004)
Degree Days  
Heating Degree Days 0 0  
Month to date heating degree days 6 0  
Since 1 June heating degree days 13 16  
Since 1 July heating degree days 8 1  
Cooling Degree Days 5 8  
Month to date cooling degree days 94 136  
Year to date cooling degree days 820 709  
Since 1 June cooling degree days 652 628  
Growing Degree Days 18 (Base 50)    
Moisture  
Dew Point 57 °F    
Average Humidity 65    
Maximum Humidity 86    
Minimum Humidity 43    
Precipitation  
Precipitation 0.00 in 0.10 in 0.20 in (2002)
Month to date precipitation 1.95 1.57  
Year to date precipitation 20.09 28.46  
Sea Level Pressure  
Sea Level Pressure 30.16 in    
Wind  
Wind Speed 7 mph (ENE)    
Max Wind Speed 13 mph    
Max Gust Speed 24 mph    
Visibility 10 miles    
Events      
T = Trace of Precipitation, MM = Missing Value Source: NWS Daily Summary

Daily Weather History Graph

Daily Weather History Graph

Search for Another Location

Airport:

Trip Planner

Search our weather history database for the weather conditions in past years. The results will help you decide how hot, cold, wet, or windy it might be!

Date:

Astronomy

Aug. 17, 2013 Rise Set
Actual Time 6:57 AM EDT 8:36 PM EDT
Civil Twilight 6:29 AM EDT 9:04 PM EDT
Nautical Twilight 5:54 AM EDT 9:39 PM EDT
Astronomical Twilight 5:17 AM EDT 10:15 PM EDT
Moon 5:50 PM EDT (8/17) 3:00 AM EDT (8/17)
Length of Visible Light 14h 35m
Length of Day
13h 38m
Waxing Gibbous, 84% of the Moon is Illuminated
Aug 17
Waxing Gibbous
Aug 20
Full
Aug 28
Last Quarter
Sep 5
New
Sep 12
First Quarter

Hourly Weather History & Observations

Time (EDT) Temp. Heat Index Dew Point Humidity Pressure Visibility Wind Dir Wind Speed Gust Speed Precip Events Conditions
12:53 AM 59.0 °F - 54.0 °F 83% 30.17 in 10.0 mi NE 5.8 mph - N/A   Clear
1:53 AM 57.9 °F - 54.0 °F 87% 30.17 in 10.0 mi ENE 5.8 mph - N/A   Clear
2:53 AM 57.9 °F - 53.1 °F 84% 30.16 in 10.0 mi East 6.9 mph - N/A   Clear
3:53 AM 57.0 °F - 53.1 °F 87% 30.16 in 10.0 mi ENE 6.9 mph - N/A   Clear
4:53 AM 55.9 °F - 52.0 °F 87% 30.16 in 10.0 mi ENE 6.9 mph - N/A   Clear
5:53 AM 57.0 °F - 53.1 °F 87% 30.17 in 10.0 mi ENE 5.8 mph - N/A   Clear
6:53 AM 57.9 °F - 53.1 °F 84% 30.17 in 10.0 mi NE 6.9 mph - N/A   Clear
7:53 AM 57.9 °F - 54.0 °F 87% 30.19 in 10.0 mi ENE 4.6 mph - N/A   Clear
8:53 AM 63.0 °F - 55.9 °F 78% 30.19 in 10.0 mi ENE 5.8 mph - N/A   Clear
9:53 AM 69.1 °F - 57.9 °F 68% 30.19 in 10.0 mi NE 6.9 mph - N/A   Clear
10:53 AM 73.0 °F - 57.9 °F 59% 30.19 in 10.0 mi ENE 8.1 mph - N/A   Clear
11:53 AM 77.0 °F - 59.0 °F 54% 30.19 in 10.0 mi ENE 6.9 mph - N/A   Clear
12:53 PM 79.0 °F - 59.0 °F 50% 30.18 in 10.0 mi East 9.2 mph - N/A   Clear
1:53 PM 80.1 °F 80.9 °F 60.1 °F 50% 30.16 in 10.0 mi East 8.1 mph - N/A   Scattered Clouds
2:53 PM 79.0 °F - 60.1 °F 52% 30.15 in 10.0 mi ENE 6.9 mph - N/A   Partly Cloudy
3:53 PM 81.0 °F 81.3 °F 59.0 °F 47% 30.13 in 10.0 mi ENE 10.4 mph - N/A   Clear
4:53 PM 81.0 °F 81.3 °F 59.0 °F 47% 30.13 in 10.0 mi East 6.9 mph - N/A   Partly Cloudy
5:53 PM 82.0 °F 82.0 °F 57.9 °F 44% 30.13 in 10.0 mi ENE 5.8 mph - N/A   Clear
6:53 PM 78.1 °F - 59.0 °F 52% 30.13 in 10.0 mi ENE 6.9 mph - N/A   Clear
7:53 PM 73.9 °F - 60.1 °F 62% 30.13 in 10.0 mi ENE 5.8 mph - N/A   Clear
8:53 PM 70.0 °F - 59.0 °F 68% 30.13 in 10.0 mi NE 5.8 mph - N/A   Clear
9:53 PM 69.1 °F - 57.9 °F 68% 30.13 in 10.0 mi NE 6.9 mph - N/A   Clear
10:53 PM 69.1 °F - 57.0 °F 65% 30.12 in 10.0 mi NE 5.8 mph - N/A   Clear
11:53 PM 64.0 °F - 57.0 °F 78% 30.13 in 10.0 mi ENE 5.8 mph - N/A   Clear